Regional Weather Roundup
Issued by NWS Upton, NY

Current Version | Previous Version | Text Only | Print | Product List | Glossary On
Versions: 1 2 3 4 5 6 7 8 9 10 11 12 13 14 15 16 17 18 19 20 21 22 23 24 25 26 27 28 29 30 31 32 33 34 35 36 37 38 39 40 41 42 43 44 45 46 47 48 49 50
000
ASUS41 KOKX 311404
RWROKX

REGIONAL WEATHER ROUNDUP
NATIONAL WEATHER SERVICE NEW YORK NY
1000 AM EDT WED AUG 31 2016

NOTE: "FAIR" INDICATES FEW OR NO CLOUDS BELOW 12,000 FEET WITH NO
SIGNIFICANT WEATHER AND/OR OBSTRUCTIONS TO VISIBILITY.

NYZ071-072-176-178-NJZ106-104-311500-
NEW YORK CITY METRO AREA

CITY           SKY/WX    TMP DP  RH WIND       PRES   REMARKS
Central Park   PTSUNNY   78  68  71 CALM      30.02F HAZE
LaGuardia APRT PTSUNNY   81  68  64 SW10      29.99S
Kennedy INTL   PTSUNNY   78  73  84 SW9       30.01S
Newark/Liberty PTSUNNY   80  68  66 CALM      29.99F
Bronx Bot Gard   N/A     79  66  65 W13       30.02S
Wall St Helipt MOSUNNY   79  72  78 W3        30.01S
Teterboro      PTSUNNY   80  67  64 VRB3      29.99S
$$

NYZ177-179-078>081-311500-
LONG ISLAND NEW YORK

CITY           SKY/WX    TMP DP  RH WIND       PRES   REMARKS
Farmingdale    PTSUNNY   80  70  71 SW14      30.01R
MacArthur/ISP  CLOUDY    79  70  74 SW12      29.99F
Shirley        CLOUDY    78  71  79 SW7       30.01R
Riverhead      NOT AVBL
Westhampton    PTSUNNY   78  70  76 SW12      30.02S
Southampton      N/A     77  72  83 SW9       29.96F
Bridgehampton  NOT AVBL
East Hampton   PTSUNNY   78  70  78 SW12      29.99F
Montauk          N/A     78  71  79 SW7       30.01F
$$

NYZ052-065-067-311500-
HUDSON VALLEY

CITY           SKY/WX    TMP DP  RH WIND       PRES   REMARKS
White Plains   CLOUDY    78  68  71 W8        30.00F
Newburgh       PTSUNNY   72  70  94 SW7       30.02F
Montgomery     CLOUDY    73  69  87 SW6       30.00S
Poughkeepsie   MOSUNNY   73  67  81 S7        29.98S
Albany         CLOUDY    70  62  76 S7        29.97F
$$

NJZ001-105-106-008-010-013-015-019>022-104-311500-
NEW JERSEY

CITY           SKY/WX    TMP DP  RH WIND       PRES   REMARKS
Newark/Liberty PTSUNNY   80  68  66 CALM      29.99F
Teterboro      PTSUNNY   80  67  64 VRB3      29.99S
Caldwell       PTSUNNY   78  68  71 CALM      30.00F
Morristown     PTSUNNY   79  68  69 W6        30.00F
Somerville     MOSUNNY   78  68  71 CALM      29.99S
Linden         FAIR      79  67  67 CALM      30.01S
Sussex         CLOUDY    73  69  87 SW5       30.00F
Abdover          N/A     76  67  73 CALM      30.01F
Trenton        CLOUDY    80  65  59 NW5       30.00F
Millville      MOSUNNY   80  73  79 W6        30.01S
Atlantic City  MOSUNNY   82  69  64 VRB3      30.00F
Wrightstown    SUNNY     79  70  72 S6        29.98F
Toms River     PTSUNNY   82  71  69 W9        30.01F
Belmar         PTSUNNY   78  71  79 SW7       30.02F
$$

PAZ047>061-062-071-311500-
EASTERN PENNSYLVANIA

CITY           SKY/WX    TMP DP  RH WIND       PRES   REMARKS
Philadelphia   MOSUNNY   79  70  74 S5        30.00F
Allentown      MOSUNNY   77  63  61 CALM      30.00F
Scranton       CLOUDY    71  63  75 CALM      30.02S
$$

CTZ002-004>006-009-010-012-RIZ004-006-007-MAZ004-011-015-311500-
SOUTHERN NEW ENGLAND
 IN CT

CITY           SKY/WX    TMP DP  RH WIND       PRES   REMARKS
Bradley INTL   CLOUDY    75  66  73 SW7       29.98F
Hartford       CLOUDY    78  68  71 SW5       29.98F
Danbury        PTSUNNY   73  67  81 SW8       30.02S
Wtrbury/Oxford PTSUNNY   73  66  78 CALM      30.03S
Bridgeport     MOSUNNY   80  71  74 SW10      29.99S
Meriden        MOSUNNY   78  68  71 W7        29.99S
New Haven      CLOUDY    77  71  82 W7        29.99S
Chester        FAIR      77  70  78 VRB7      30.00S
Groton         CLOUDY    79  72  79 SW12      29.98F
Wilimantic     CLOUDY    75  69  81 CALM      30.00S

 IN RI

CITY           SKY/WX    TMP DP  RH WIND       PRES   REMARKS
Providence     CLOUDY    76  68  76 SW9       29.99F
Block Island   MOSUNNY   78  70  76 SW12      30.01S
Westerly       CLOUDY    77  69  76 SW7       30.00F
 IN MA

CITY           SKY/WX    TMP DP  RH WIND       PRES   REMARKS
Boston         CLOUDY    76  66  71 SW13      29.96S
Worcester      CLOUDY    71  62  73 SW10      30.00S
Westfield      MOSUNNY   73  65  75 SW5       29.98S
Provincetown   PTSUNNY   74  69  85 SW13      29.99S
Nantucket      CLOUDY    73  68  84 SW9       30.01S
$$

ANZ330-335-338-340-345-350-353-355-311500-
COASTAL MARINE OBSERVATIONS


STATION/POSITION TIME  SKY/WX   TEMP    WIND        PRES    VSBY  WAVE
                                AIR SEA DIR/SP/G                  HT/PER
                 (UTC)          (F)     (DEG/KT/KT) (MB)    (MI)  (FT/S)
NY HARB ENTRANCE 1250            74 77  270/  4/  6 1015.8          3/11
20S FIRE ISLAND  1250            76 76  250/  6/  8 1015.8          4/12
GREAT SOUTH BAY  1315            76 79  240/ 10/ 14   N/A
23 SSW MONTAUK P 1250            76 77  230/ 12/ 14 1016.5          4/12
15 E BARNEGAT LI 1300               77                N/A           4/11
HUDSON CANYON    1250            78 78              1016.3          4/11
KINGS POINT      1300            76 77              1015.6
EXECUTION ROCKS  1300            77     240/  6/ 10   N/A
CENTRAL LI SOUND NOT AVBL
EASTERN LI SOUND 1300            75 71  230/  8/ 10   N/A
ROBBINS REEF     1300            75     240/  4/  5 1015.2
$$


>>>>>>>>>>>>>>>>>>>>>>>>>>>> KEY <<<<<<<<<<<<<<<<<<<<<<<<<<<
>                                                          <
>     SKY/WX - Sky Condition/Present Weather               <
>     TMP    - Temperature in Fahrenheit                   <
>     DP     - Dew Point in Fahrenheit                     <
>     RH     - Relative Humidity in Percent                <
>     WIND   - Direction (from) and Speed in MPH           <
>     PRES   - Mean Sea Level Pressure (inches of Hg)      <
>     WCI    - Wind Chill Index                            <
>     VSB    - VISIBILITY IN MILES                         <
>     HX     - HEAT INDEX                                  <
>     TC     - TEMPERATURE IN CELSIUS                      <
>     VRB    - VARIABLE WIND DIRECTION                     <
>                                                          <
>>>>>>>>>>>>>>>>>>>>>>>>>>>> KEY <<<<<<<<<<<<<<<<<<<<<<<<<<<



USA.gov is the U.S. government's official web portal to all federal, state and local government web resources and services.